Location: Atbuku
(36.4936°N, 30.4362°E)
Time: 05:18:35
(UTC+00:00)

SL-24 R/B - RUBIN 2 - Pass Details

Date: 11 December 2025
Orbit: 601 x 986 km, 64.6° (Epoch: 13 January)

Event Time Altitude Azimuth Distance (km) Brightness Sun altitude
Rises 16:42:12 0° 209° (SSW) 3,440 8.0 -23.2°
Reaches altitude 10° 16:44:47 10° 209° (SSW) 2,447 7.1 -23.7°
Maximum altitude 16:50:26 89° 300° (WNW) 778 3.9 -24.9°
Enters shadow 16:51:14 65° 27° (NNE) 836 3.9 -25.0°
